[[{"header":{"parameterUnit":"m.s-1","parameterCategory":2,"la1":30.2991,"la2":30.254,"lo1":-89.0895,"lo2":-89.0444,"dy":0.0017,"dx":0.0017,"nx":28,"ny":28,"refTime":"2023-10-19T21:00:00:Z","depth":"0","parameterNumber":2,"parameterNumberName":"U-component_of_CURRENTS"},"data":[0,0,0,0,0,0,0,0,0,0,0,0,0,0,0,0,0,0,0,0,0,0,0,0,0,0,0,0,0,0,0,0,0,0,0,0,0,0,0,0,0,0,0,0,0,0,0,0,0,0,0,0,0,0,0,0,0,0,-0.2132,-0.2132,0,-0.2112,-0.2111,-0.211,-0.2029,-0.2027,-0.2026,-0.2025,-0.1932,-0.1931,-0.193,0,0,0,0,0,0,0,0,0,0,0,0,0,-0.1976,-0.1979,-0.2132,-0.2132,-0.2133,-0.2112,-0.2111,-0.211,-0.2029,-0.2027,-0.2026,-0.2024,-0.1933,-0.1931,-0.193,0,0,0,0,0,0,0,0,0,0,0,0,0,-0.2002,-0.1981,-0.2132,-0.2095,-0.2092,-0.2112,-0.2111,-0.211,-0.2029,-0.2027,-0.2025,-0.2024,-0.1933,-0.1931,-0.1929,-0.1953,0,0,-0.1923,-0.1922,0,0,0,0,0,0,0,0,-0.2001,-0.2007,-0.21,-0.2098,-0.2095,-0.2077,-0.2022,-0.2056,-0.203,-0.2045,-0.2025,-0.2023,-0.198,-0.1974,-0.1965,-0.1949,-0.1945,-0.1923,-0.1922,-0.1921,-0.192,0,0,0,0,0,0,0,-0.1999,-0.2007,-0.2116,-0.2101,-0.2098,-0.2038,-0.204,-0.2027,-0.2016,-0.2044,-0.204,-0.205,-0.1977,-0.1967,-0.1962,-0.1943,-0.1923,-0.1921,-0.192,-0.1919,-0.1968,-0.197,0,0,0,0,0,0,-0.2026,-0.2006,-0.2117,-0.2117,-0.2051,-0.2043,-0.2045,-0.2079,-0.2018,-0.2009,-0.2051,-0.2046,-0.1972,-0.1965,-0.1959,-0.201,-0.1921,-0.1919,-0.1918,-0.1965,-0.1968,-0.1971,0,0,0,0,0,0,-0.2023,-0.2037,-0.2118,-0.2064,-0.2071,-0.2049,-0.2087,-0.2079,-0.2069,-0.2026,-0.2014,-0.205,-0.197,-0.1961,-0.1954,-0.2004,-0.1918,-0.1916,-0.1962,-0.1966,-0.197,-0.2094,0,0,0,0,0,0,-0.2019,-0.2037,-0.2057,-0.2068,-0.2076,-0.214,-0.2089,-0.2081,-0.2082,-0.2075,-0.2021,-0.201,-0.1968,-0.1958,-0.1952,-0.2,-0.1915,-0.1959,-0.1964,-0.1968,-0.2087,-0.2102,-0.2114,0,0,0,0,0,-0.2014,-0.2055,-0.2058,-0.2071,-0.211,-0.2143,-0.2141,-0.2111,-0.2084,-0.2092,-0.2054,-0.2012,-0.1984,-0.1958,-0.1951,-0.1999,-0.1957,-0.1963,-0.1968,-0.2081,-0.2099,-0.2114,0,0,0,0,0,0,-0.198,-0.2052,-0.2055,-0.2111,-0.2132,-0.2132,-0.2135,-0.2124,-0.2101,-0.2085,-0.2034,-0.2022,-0.2039,-0.2005,-0.1977,-0.2029,-0.1968,-0.1973,-0.2057,-0.2073,-0.2087,-0.2057,-0.1913,0,0,0,0,0,-0.1993,-0.2047,-0.2091,-0.213,-0.2149,-0.2145,-0.215,-0.2139,-0.2129,-0.2116,-0.2084,-0.2059,-0.2061,-0.2052,-0.2039,-0.2062,-0.2001,-0.2093,-0.2107,-0.2118,-0.2092,-0.2054,-0.2061,-0.1989,-0.1989,-0.1989,0,0,-0.1984,-0.2034,-0.2058,-0.2127,-0.2135,-0.2186,-0.2141,-0.2162,-0.2194,-0.2112,-0.2128,-0.2102,-0.2078,-0.2104,-0.211,-0.2078,-0.2114,-0.2125,-0.2136,-0.2102,-0.2061,-0.2067,-0.2073,-0.1993,-0.1993,-0.1992,0,0,-0.2004,-0.2049,-0.21,-0.2145,-0.2189,-0.2201,-0.2217,-0.2232,-0.2226,-0.2249,-0.2208,-0.2197,-0.2199,-0.2184,-0.2182,-0.2263,-0.2189,-0.2283,-0.2325,-0.2291,-0.2295,-0.2298,-0.2254,-0.2251,-0.2289,-0.2289,-0.2289,0,-0.1985,-0.2078,-0.2111,-0.2182,-0.2225,-0.2221,-0.2281,-0.2293,-0.2297,-0.2287,-0.2268,-0.2255,-0.2235,-0.2262,-0.2293,-0.2292,-0.2253,-0.2265,-0.2306,-0.2307,-0.2308,-0.2261,-0.2257,-0.2296,-0.2295,-0.2294,-0.2294,0,-0.2051,-0.2133,-0.2168,-0.2272,-0.2312,-0.2366,-0.2408,-0.2421,-0.2414,-0.2404,-0.2412,-0.2382,-0.2351,-0.2384,-0.2362,-0.2382,-0.2348,-0.2328,-0.2257,-0.2322,-0.227,-0.2263,-0.2305,-0.2303,-0.2301,-0.2299,0,0,-0.199,-0.2181,-0.219,-0.2254,-0.2372,-0.2396,-0.2473,-0.2513,-0.2503,-0.252,-0.2507,-0.2535,-0.2471,-0.2463,-0.2444,-0.2431,-0.2423,-0.2389,-0.2384,-0.2332,-0.2339,-0.2254,-0.2238,-0.2414,-0.2413,-0.2412,-0.2308,0,-0.2027,-0.2181,-0.2265,-0.238,-0.2462,-0.2511,-0.2562,-0.2586,-0.2581,-0.256,-0.2547,-0.2521,-0.2522,-0.2489,-0.2486,-0.2423,-0.2408,-0.2452,-0.2292,-0.2286,-0.2192,-0.2228,-0.2075,-0.1963,-0.23,-0.2299,-0.2298,0,-0.206,-0.2169,-0.231,-0.244,-0.2467,-0.2518,-0.2557,-0.2597,-0.2592,-0.2573,-0.2556,-0.2523,-0.251,-0.2491,-0.2426,-0.2454,-0.2399,-0.2364,-0.2358,-0.2217,-0.2188,-0.1949,-0.1937,-0.1921,-0.2287,-0.2288,-0.2289,0,-0.2001,-0.2182,-0.2292,-0.2353,-0.25,-0.2525,-0.2559,-0.2577,-0.2568,-0.2554,-0.252,-0.2508,-0.2459,-0.2425,-0.2364,-0.2383,-0.2276,-0.2284,-0.2162,-0.2155,-0.1956,-0.1933,-0.1887,-0.2226,-0.2227,-0.2227,-0.2227,0,-0.2031,-0.21,-0.2262,-0.2327,-0.2363,-0.2473,-0.2469,-0.2486,-0.2491,-0.2437,-0.2489,-0.2439,-0.2436,-0.2386,-0.2349,-0.2223,-0.2255,-0.215,-0.2117,-0.2,-0.1983,-0.1901,-0.1946,-0.2223,-0.2224,-0.2225,-0.2225,0,-0.1951,-0.2092,-0.2189,-0.233,-0.2352,-0.2353,-0.24,-0.2369,-0.2409,-0.2344,-0.2336,-0.2356,-0.2287,-0.2288,-0.2205,-0.2162,-0.2031,-0.2031,-0.1893,-0.1846,-0.1709,-0.1767,-0.1687,-0.1647,-0.1862,-0.1859,-0.1857,0,-0.1933,-0.1992,-0.2125,-0.2137,-0.2194,-0.2224,-0.2213,-0.2286,-0.2254,-0.2268,-0.2208,-0.2188,-0.2126,-0.2022,-0.1936,-0.1847,-0.19,-0.1668,-0.1676,-0.1664,-0.1705,-0.1783,-0.1762,-0.1471,-0.1466,-0.1462,-0.1458,0,-0.1848,-0.1889,-0.1953,-0.1989,-0.1997,-0.2,-0.2005,-0.1981,-0.203,-0.2015,-0.1966,-0.1949,-0.1872,-0.1706,-0.1626,-0.1577,-0.1621,-0.1574,-0.1585,-0.1408,-0.1461,-0.1417,-0.1594,-0.1419,-0.1423,-0.1426,-0.1428,-0.143,-0.1713,-0.1714,-0.1785,-0.179,-0.1788,-0.1734,-0.1665,-0.1694,-0.1644,-0.1567,-0.1676,-0.1535,-0.1455,-0.1316,-0.1318,-0.1191,-0.1328,-0.1132,-0.1206,-0.1289,-0.1242,-0.1336,-0.1119,-0.1121,-0.1123,-0.1125,-0.1126,0,-0.1539,-0.1563,-0.157,-0.1561,-0.1462,-0.1536,-0.1474,-0.1392,-0.1283,-0.1232,-0.1202,-0.0947,-0.0889,-0.0879,-0.0825,-0.0821,-0.0861,-0.084,-0.091,-0.0908,-0.0968,-0.0941,-0.0645,-0.0645,-0.0645,-0.0645,-0.0646,-0.0646,-0.1447,-0.1413,-0.1437,-0.1248,-0.1202,-0.1024,-0.0946,-0.088,-0.08,-0.0582,-0.0374,-0.0313,-0.0349,-0.06,-0.0685,-0.0687,-0.0746,-0.0704,-0.0817,-0.0856,-0.089,-0.0922,-0.0905,-0.0607,-0.0607,-0.0667,-0.0667,-0.0668]},{"header":{"parameterUnit":"m.s-1","parameterCategory":2,"la1":30.2991,"la2":30.254,"lo1":-89.0895,"lo2":-89.0444,"dy":0.0017,"dx":0.0017,"nx":28,"ny":28,"refTime":"2023-10-19T21:00:00:Z","depth":"0","parameterNumber":3,"parameterNumberName":"V-component_of_CURRENTS"},"data":[0,0,0,0,0,0,0,0,0,0,0,0,0,0,0,0,0,0,0,0,0,0,0,0,0,0,0,0,0,0,0,0,0,0,0,0,0,0,0,0,0,0,0,0,0,0,0,0,0,0,0,0,0,0,0,0,0,0,0.0034,0.0036,0,0.0192,0.0193,0.0195,0.027,0.0271,0.0271,0.0271,0.0378,0.0381,0.0383,0,0,0,0,0,0,0,0,0,0,0,0,0,-0.0156,-0.0154,0.0034,0.0036,0.0038,0.0192,0.0193,0.0195,0.027,0.0271,0.0271,0.0271,0.0377,0.038,0.0384,0,0,0,0,0,0,0,0,0,0,0,0,0,-0.0046,-0.0153,0.0033,0.0096,0.0103,0.0191,0.0194,0.0196,0.027,0.0271,0.0271,0.0271,0.0376,0.038,0.0384,0.0405,0,0,0.0397,0.0398,0,0,0,0,0,0,0,0,-0.0053,-0.004,0.0084,0.0092,0.01,0.0214,0.0166,0.0264,0.027,0.0204,0.0271,0.0271,0.032,0.0329,0.0355,0.041,0.0414,0.0397,0.0399,0.0401,0.0402,0,0,0,0,0,0,0,-0.006,-0.0046,0.0094,0.0087,0.0096,0.0132,0.0147,0.0185,0.0256,0.021,0.0217,0.0238,0.0323,0.0351,0.0358,0.0416,0.0397,0.04,0.0403,0.0405,0.0483,0.0483,0,0,0,0,0,0,-0.0077,-0.0053,0.0089,0.0099,0.0026,0.0135,0.0152,0.0175,0.0257,0.0271,0.0238,0.0241,0.0344,0.0353,0.0362,0.0391,0.0401,0.0405,0.0407,0.0483,0.0483,0.0483,0,0,0,0,0,0,-0.0082,-0.0066,0.0083,0.0028,0.005,0.0138,0.0163,0.0178,0.0207,0.0279,0.0291,0.0251,0.0344,0.0356,0.0397,0.0396,0.0407,0.041,0.0484,0.0483,0.0483,0.0449,0,0,0,0,0,0,-0.0088,-0.0069,-0.0065,0.0027,0.0053,0.0122,0.0164,0.0181,0.0221,0.0227,0.0295,0.0305,0.0346,0.039,0.0401,0.0402,0.0414,0.0484,0.0484,0.0483,0.0451,0.0448,0.0445,0,0,0,0,0,-0.0095,-0.0091,-0.0066,-0.0049,0.0057,0.0122,0.0137,0.02,0.0221,0.0227,0.0279,0.0303,0.0393,0.0394,0.0406,0.0408,0.0485,0.0484,0.0483,0.0452,0.0448,0.0445,0,0,0,0,0,0,-0.0174,-0.008,-0.0051,-0.0019,0.0041,0.0135,0.0151,0.0194,0.0242,0.0245,0.0308,0.0322,0.0352,0.0382,0.0382,0.0426,0.0439,0.044,0.0411,0.0408,0.0405,0.0396,0.0417,0,0,0,0,0,-0.019,-0.0162,-0.007,-0.0049,-0.0021,0.0062,0.0095,0.0138,0.0199,0.0221,0.0269,0.0316,0.0359,0.0385,0.0419,0.0451,0.0452,0.0456,0.0453,0.045,0.045,0.0482,0.0482,0.048,0.048,0.048,0,0,-0.0217,-0.0159,-0.0146,-0.0064,-0.0012,0.0018,0.0081,0.0126,0.0153,0.0223,0.0259,0.0304,0.0362,0.0397,0.0413,0.0425,0.0437,0.0449,0.0447,0.0448,0.0481,0.0481,0.0482,0.048,0.048,0.048,0,0,-0.026,-0.0205,-0.02,-0.0153,-0.0077,-0.002,-0.0012,0.0076,0.0114,0.016,0.0215,0.027,0.0323,0.0381,0.0414,0.0416,0.0415,0.0409,0.04,0.0431,0.0432,0.0432,0.0371,0.0367,0.0416,0.0416,0.0416,0,-0.0302,-0.0273,-0.0192,-0.0173,-0.014,-0.0044,-0.0035,0.0022,0.0108,0.0137,0.0158,0.0264,0.0322,0.0386,0.0393,0.0413,0.039,0.0411,0.0428,0.0429,0.0431,0.0368,0.0364,0.0414,0.0414,0.0414,0.0415,0,-0.033,-0.0316,-0.0309,-0.0251,-0.0206,-0.0184,-0.009,-0.0051,0.0007,0.0067,0.0133,0.0224,0.0285,0.0317,0.0364,0.0404,0.0365,0.0414,0.0437,0.0429,0.0362,0.0359,0.0412,0.0412,0.0413,0.0413,0,0,-0.0403,-0.0345,-0.0345,-0.0343,-0.0246,-0.0217,-0.0164,-0.009,-0.0077,0.0024,0.0045,0.0175,0.0223,0.0264,0.0332,0.0386,0.0376,0.0401,0.0403,0.0337,0.0361,0.0447,0.045,0.0424,0.0425,0.0425,0.0287,0,-0.0457,-0.0464,-0.04,-0.0409,-0.0406,-0.0303,-0.0271,-0.019,-0.012,-0.0085,0.0049,0.0087,0.0202,0.0217,0.0297,0.0351,0.0374,0.0404,0.0381,0.0379,0.0458,0.0455,0.0561,0.046,0.0283,0.0283,0.0282,0,-0.0501,-0.0502,-0.0524,-0.05,-0.0487,-0.0469,-0.0404,-0.036,-0.0262,-0.0218,-0.0123,-0.0047,0.0054,0.0141,0.0251,0.0254,0.03,0.0352,0.0349,0.0448,0.0463,0.0454,0.046,0.0606,0.0277,0.0277,0.0278,0,-0.0594,-0.0587,-0.0613,-0.06,-0.0551,-0.0537,-0.0497,-0.0403,-0.0385,-0.0308,-0.0312,-0.0173,-0.0137,-0.0016,0.014,0.0165,0.0232,0.0272,0.0381,0.0381,0.0482,0.0494,0.064,0.0334,0.0334,0.0335,0.0335,0,-0.0668,-0.0691,-0.0667,-0.0684,-0.0721,-0.0635,-0.0655,-0.0594,-0.054,-0.0559,-0.0395,-0.0408,-0.0168,-0.008,0.0058,0.0213,0.0166,0.0369,0.0378,0.0466,0.0478,0.062,0.0676,0.0329,0.0331,0.0332,0.0333,0,-0.0754,-0.0742,-0.078,-0.0765,-0.0768,-0.0785,-0.0764,-0.0781,-0.0711,-0.074,-0.0729,-0.0604,-0.0472,-0.0231,-0.0068,0.0092,0.0342,0.0298,0.0351,0.0374,0.064,0.0688,0.0777,0.0896,0.036,0.0361,0.0363,0,-0.0791,-0.0822,-0.0854,-0.0893,-0.0889,-0.091,-0.0935,-0.0876,-0.0901,-0.088,-0.0922,-0.079,-0.0685,-0.0384,-0.0033,0.0237,0.0375,0.0438,0.0563,0.0677,0.0734,0.0739,0.0834,0.062,0.0623,0.0626,0.0629,0,-0.0858,-0.087,-0.0902,-0.0991,-0.1039,-0.1102,-0.1132,-0.1182,-0.114,-0.1165,-0.1207,-0.112,-0.074,-0.032,0.0138,0.0295,0.0592,0.0504,0.0636,0.0975,0.0975,0.1087,0.0608,0.0654,0.0651,0.0649,0.0648,0.0647,-0.0892,-0.0941,-0.0991,-0.1067,-0.1145,-0.1251,-0.1291,-0.1348,-0.1408,-0.1357,-0.1361,-0.1062,-0.0405,0.0292,0.0407,0.0863,0.0787,0.0996,0.1031,0.1012,0.1212,0.0762,0.0841,0.084,0.0839,0.0837,0.0837,0,-0.0918,-0.0974,-0.106,-0.1154,-0.1244,-0.1271,-0.1385,-0.1398,-0.147,-0.1328,-0.1267,-0.0392,0.0158,0.0706,0.1307,0.143,0.1446,0.1463,0.1511,0.1578,0.1194,0.1301,0.1472,0.1472,0.1472,0.1472,0.1472,0.1472,-0.0933,-0.1015,-0.1062,-0.1198,-0.1263,-0.134,-0.1392,-0.143,-0.1311,-0.0933,-0.0394,0.0032,0.088,0.147,0.1858,0.1873,0.2019,0.194,0.1999,0.1758,0.1717,0.1678,0.1797,0.2069,0.207,0.2416,0.2419,0.2422]}],[{"header":{"parameterUnit":"m.s-1","parameterCategory":2,"la1":30.2991,"la2":30.254,"lo1":-89.0895,"lo2":-89.0444,"dy":0.0017,"dx":0.0017,"nx":28,"ny":28,"refTime":"2023-10-19T21:00:00:Z","depth":"2","parameterNumber":2,"parameterNumberName":"U-component_of_CURRENTS"},"data":[0,0,0,0,0,0,0,0,0,0,0,0,0,0,0,0,0,0,0,0,0,0,0,0,0,0,0,0,0,0,0,0,0,0,0,0,0,0,0,0,0,0,0,0,0,0,0,0,0,0,0,0,0,0,0,0,0,0,-0.2009,-0.201,0,-0.2052,-0.2052,-0.2052,-0.2028,-0.2027,-0.2026,-0.2025,-0.2334,-0.2342,-0.2351,0,0,0,0,0,0,0,0,0,0,0,0,0,-0.1941,-0.1942,-0.2009,-0.201,-0.2011,-0.2052,-0.2052,-0.2052,-0.2028,-0.2027,-0.2026,-0.2025,-0.2331,-0.2341,-0.2352,0,0,0,0,0,0,0,0,0,0,0,0,0,-0.1972,-0.1942,-0.2009,-0.2006,-0.2007,-0.2052,-0.2052,-0.2052,-0.2028,-0.2027,-0.2026,-0.2025,-0.2327,-0.234,-0.2354,-0.2463,0,0,-0.2395,-0.2401,0,0,0,0,0,0,0,0,-0.1971,-0.1974,-0.2006,-0.2007,-0.2007,-0.2036,-0.2141,-0.2204,-0.2029,-0.2017,-0.2025,-0.2024,-0.2262,-0.2281,-0.2283,-0.2478,-0.2491,-0.2396,-0.2404,-0.241,-0.2414,0,0,0,0,0,0,0,-0.1968,-0.1973,-0.2023,-0.2007,-0.2008,-0.2015,-0.2017,-0.2152,-0.2149,-0.2018,-0.2017,-0.2027,-0.2264,-0.227,-0.2291,-0.2496,-0.2396,-0.2408,-0.2416,-0.2422,-0.2856,-0.2859,0,0,0,0,0,0,-0.197,-0.1971,-0.2021,-0.2024,-0.1989,-0.2017,-0.202,-0.2026,-0.2141,-0.2156,-0.2029,-0.2026,-0.2247,-0.2275,-0.2302,-0.2451,-0.241,-0.2423,-0.2431,-0.2853,-0.2857,-0.2861,0,0,0,0,0,0,-0.1968,-0.1974,-0.202,-0.2001,-0.2008,-0.202,-0.2027,-0.2027,-0.2036,-0.2147,-0.2166,-0.2037,-0.2247,-0.2283,-0.2417,-0.2463,-0.2429,-0.2441,-0.2849,-0.2854,-0.2859,-0.2745,0,0,0,0,0,0,-0.1966,-0.1973,-0.1988,-0.2001,-0.2009,-0.2051,-0.2028,-0.2029,-0.2046,-0.2043,-0.2163,-0.2188,-0.2249,-0.2396,-0.2431,-0.2481,-0.2452,-0.2844,-0.2851,-0.2857,-0.2744,-0.2745,-0.2746,0,0,0,0,0,-0.1963,-0.1963,-0.1989,-0.1996,-0.2026,-0.2052,-0.2057,-0.2058,-0.2048,-0.2059,-0.2133,-0.2185,-0.2462,-0.2409,-0.2449,-0.2505,-0.2841,-0.2849,-0.2857,-0.2743,-0.2745,-0.2746,0,0,0,0,0,0,-0.194,-0.1962,-0.1989,-0.1999,-0.2037,-0.2049,-0.2056,-0.2067,-0.2127,-0.2132,-0.2222,-0.2255,-0.2398,-0.2481,-0.2419,-0.2656,-0.2667,-0.2682,-0.2567,-0.257,-0.2571,-0.2492,-0.2463,0,0,0,0,0,-0.1949,-0.1963,-0.1994,-0.2017,-0.2024,-0.205,-0.2064,-0.2073,-0.2122,-0.2142,-0.2218,-0.2333,-0.2464,-0.2531,-0.2657,-0.2783,-0.2764,-0.2854,-0.2855,-0.2854,-0.2823,-0.2795,-0.2786,-0.2886,-0.2886,-0.2886,0,0,-0.197,-0.197,-0.1994,-0.2016,-0.2036,-0.2063,-0.2053,-0.2074,-0.2102,-0.2181,-0.2245,-0.235,-0.2504,-0.2629,-0.2703,-0.2698,-0.2824,-0.2864,-0.2861,-0.283,-0.2801,-0.279,-0.278,-0.2891,-0.289,-0.2889,0,0,-0.1988,-0.1995,-0.2013,-0.2034,-0.2064,-0.2076,-0.2086,-0.2111,-0.2119,-0.2208,-0.2278,-0.2367,-0.2574,-0.2642,-0.2723,-0.2815,-0.2836,-0.2912,-0.2842,-0.2815,-0.2803,-0.2792,-0.2749,-0.2735,-0.2901,-0.2901,-0.2901,0,-0.2005,-0.2018,-0.2029,-0.204,-0.2054,-0.2082,-0.2105,-0.2131,-0.2199,-0.222,-0.2226,-0.2446,-0.256,-0.269,-0.2718,-0.2807,-0.2797,-0.2808,-0.2802,-0.2792,-0.2783,-0.2741,-0.2727,-0.2896,-0.2897,-0.2897,-0.2898,0,-0.2016,-0.2051,-0.2051,-0.2079,-0.2106,-0.2118,-0.2157,-0.2191,-0.2208,-0.2232,-0.2332,-0.243,-0.255,-0.2622,-0.2702,-0.2743,-0.2759,-0.28,-0.2763,-0.2763,-0.2723,-0.271,-0.289,-0.2891,-0.2893,-0.2894,0,0,-0.1995,-0.2045,-0.2054,-0.2084,-0.211,-0.2135,-0.2183,-0.2223,-0.2256,-0.2292,-0.2316,-0.2472,-0.2483,-0.2573,-0.2667,-0.2636,-0.2565,-0.2688,-0.2689,-0.258,-0.2491,-0.2415,-0.2394,-0.26,-0.2598,-0.2596,-0.2483,0,-0.1997,-0.2019,-0.2044,-0.2109,-0.2127,-0.2167,-0.2215,-0.2268,-0.2299,-0.2337,-0.2371,-0.2455,-0.2483,-0.2543,-0.251,-0.2597,-0.253,-0.2591,-0.2565,-0.2563,-0.2441,-0.2376,-0.2209,-0.2086,-0.247,-0.2468,-0.2466,0,-0.1985,-0.2003,-0.2034,-0.2121,-0.2131,-0.217,-0.2228,-0.2282,-0.2343,-0.2367,-0.2387,-0.2434,-0.2447,-0.2451,-0.2428,-0.2474,-0.2456,-0.2459,-0.2456,-0.2405,-0.2462,-0.216,-0.2048,-0.2445,-0.2447,-0.2448,-0.245,0,-0.1933,-0.2005,-0.2016,-0.2036,-0.2128,-0.2155,-0.2204,-0.2279,-0.2314,-0.2371,-0.2389,-0.2402,-0.2419,-0.2376,-0.238,-0.2413,-0.2314,-0.2368,-0.2249,-0.2245,-0.2103,-0.2089,-0.2269,-0.227,-0.227,-0.227,-0.2271,0,-0.1891,-0.1926,-0.1995,-0.2006,-0.2044,-0.2129,-0.2171,-0.2235,-0.2303,-0.2329,-0.2385,-0.2381,-0.2397,-0.2363,-0.2344,-0.224,-0.2271,-0.2189,-0.2192,-0.2066,-0.2051,-0.2383,-0.2397,-0.2266,-0.2267,-0.2268,-0.2268,0,-0.1842,-0.1879,-0.1908,-0.1988,-0.2017,-0.2041,-0.2132,-0.2167,-0.2253,-0.2282,-0.2293,-0.2352,-0.2304,-0.2284,-0.2236,-0.2189,-0.2115,-0.2064,-0.1905,-0.1889,-0.2069,-0.2081,-0.1904,-0.19,-0.1896,-0.1893,-0.1891,0,-0.1803,-0.1808,-0.1871,-0.1873,-0.19,-0.1956,-0.1993,-0.2109,-0.2141,-0.2241,-0.2235,-0.2233,-0.2188,-0.2082,-0.1992,-0.1878,-0.1988,-0.168,-0.1694,-0.2001,-0.2023,-0.204,-0.2056,-0.1467,-0.1461,-0.1457,-0.1453,0,-0.1724,-0.174,-0.1761,-0.1772,-0.179,-0.1829,-0.1891,-0.1912,-0.2039,-0.206,-0.2071,-0.205,-0.197,-0.1783,-0.167,-0.1597,-0.1691,-0.1581,-0.1912,-0.16,-0.1583,-0.1608,-0.1639,-0.1412,-0.1416,-0.1419,-0.1421,-0.1423,-0.1652,-0.1625,-0.164,-0.1646,-0.167,-0.1679,-0.166,-0.172,-0.1735,-0.1732,-0.1851,-0.1761,-0.174,-0.146,-0.135,-0.1256,-0.1387,-0.1331,-0.1348,-0.1368,-0.1352,-0.1332,-0.1108,-0.1111,-0.1113,-0.1114,-0.1116,0,-0.1541,-0.1524,-0.1518,-0.1504,-0.1485,-0.1546,-0.1571,-0.1522,-0.1464,-0.1477,-0.1466,-0.1327,-0.119,-0.1159,-0.0931,-0.0889,-0.0905,-0.0862,-0.0885,-0.0925,-0.0961,-0.0928,-0.0569,-0.0567,-0.0566,-0.0565,0,0,-0.1472,-0.1419,-0.1411,-0.1324,-0.132,-0.1244,-0.1221,-0.1155,-0.1133,-0.1022,-0.097,-0.1099,-0.1116,-0.086,-0.0785,-0.063,-0.0777,-0.059,-0.1024,-0.109,-0.1124,-0.1217,-0.1208,0,0,0,0,0]},{"header":{"parameterUnit":"m.s-1","parameterCategory":2,"la1":30.2991,"la2":30.254,"lo1":-89.0895,"lo2":-89.0444,"dy":0.0017,"dx":0.0017,"nx":28,"ny":28,"refTime":"2023-10-19T21:00:00:Z","depth":"2","parameterNumber":3,"parameterNumberName":"V-component_of_CURRENTS"},"data":[0,0,0,0,0,0,0,0,0,0,0,0,0,0,0,0,0,0,0,0,0,0,0,0,0,0,0,0,0,0,0,0,0,0,0,0,0,0,0,0,0,0,0,0,0,0,0,0,0,0,0,0,0,0,0,0,0,0,-0.0188,-0.0187,0,-0.0155,-0.0155,-0.0155,-0.0115,-0.0114,-0.0113,-0.0113,0.0155,0.0161,0.0168,0,0,0,0,0,0,0,0,0,0,0,0,0,-0.0178,-0.0179,-0.0188,-0.0187,-0.0187,-0.0155,-0.0155,-0.0155,-0.0115,-0.0114,-0.0113,-0.0112,0.0153,0.0161,0.0168,0,0,0,0,0,0,0,0,0,0,0,0,0,-0.0169,-0.0179,-0.0188,-0.0162,-0.0159,-0.0155,-0.0155,-0.0155,-0.0115,-0.0114,-0.0113,-0.0112,0.0151,0.016,0.0169,0.0206,0,0,0.0199,0.0203,0,0,0,0,0,0,0,0,-0.017,-0.017,-0.0166,-0.0164,-0.0161,-0.0137,-0.0053,-0.0022,-0.0115,-0.0133,-0.0113,-0.0111,0.008,0.0095,0.0093,0.0219,0.023,0.02,0.0206,0.021,0.0212,0,0,0,0,0,0,0,-0.017,-0.017,-0.0176,-0.0166,-0.0162,-0.0139,-0.0137,-0.0048,-0.003,-0.0132,-0.0128,-0.0123,0.0083,0.0083,0.0101,0.0234,0.0199,0.0208,0.0214,0.0218,0.0494,0.0495,0,0,0,0,0,0,-0.0175,-0.0172,-0.0177,-0.0175,-0.0161,-0.014,-0.0138,-0.0147,-0.0036,-0.002,-0.0124,-0.0121,0.0066,0.0089,0.0111,0.0179,0.021,0.0219,0.0224,0.0492,0.0494,0.0496,0,0,0,0,0,0,-0.0175,-0.0177,-0.0179,-0.017,-0.0169,-0.0142,-0.0152,-0.0147,-0.0136,-0.0033,-0.0012,-0.0117,0.0068,0.0097,0.0172,0.019,0.0223,0.0232,0.049,0.0493,0.0495,0.0307,0,0,0,0,0,0,-0.0175,-0.0177,-0.0184,-0.0171,-0.0169,-0.0182,-0.0152,-0.0147,-0.0135,-0.013,-0.002,0.0005,0.0071,0.0157,0.0182,0.0204,0.0239,0.0488,0.0491,0.0494,0.0311,0.0302,0.0295,0,0,0,0,0,-0.0175,-0.0195,-0.0185,-0.0185,-0.0181,-0.0182,-0.018,-0.0156,-0.0135,-0.0141,-0.0076,0.0002,0.0196,0.0164,0.0193,0.0219,0.0487,0.049,0.0494,0.0315,0.0304,0.0295,0,0,0,0,0,0,-0.0199,-0.0192,-0.0181,-0.0198,-0.019,-0.0175,-0.0176,-0.0158,-0.0116,-0.0101,-0.0005,0.0023,0.01,0.0195,0.0157,0.0316,0.0367,0.0376,0.0221,0.0212,0.0204,0.0154,0.0247,0,0,0,0,0,-0.0207,-0.0216,-0.0205,-0.0218,-0.0216,-0.0194,-0.0189,-0.0175,-0.0138,-0.012,-0.0052,0.005,0.0136,0.0196,0.028,0.0358,0.0411,0.0409,0.0401,0.0393,0.0378,0.043,0.0422,0.0507,0.0507,0.0507,0,0,-0.022,-0.0215,-0.0222,-0.0223,-0.0213,-0.0223,-0.0189,-0.0187,-0.0191,-0.009,-0.0068,0.0013,0.0148,0.0215,0.0265,0.0298,0.0402,0.0398,0.0388,0.0378,0.0432,0.0423,0.0415,0.0509,0.0509,0.0509,0,0,-0.0255,-0.0247,-0.0268,-0.0265,-0.0253,-0.0241,-0.0241,-0.0226,-0.0214,-0.0187,-0.0109,-0.0048,0.0095,0.0161,0.0227,0.0237,0.0343,0.0315,0.0243,0.0292,0.0283,0.0276,0.0327,0.0326,0.0325,0.0324,0.0324,0,-0.0269,-0.0294,-0.0274,-0.0291,-0.0292,-0.0252,-0.0274,-0.0261,-0.0226,-0.0206,-0.0191,-0.003,0.0057,0.0148,0.0142,0.021,0.0268,0.0251,0.0272,0.0267,0.0263,0.0317,0.0318,0.0316,0.0317,0.0318,0.0318,0,-0.0317,-0.0336,-0.0348,-0.0355,-0.0355,-0.0365,-0.0344,-0.0334,-0.0309,-0.0284,-0.0218,-0.0137,-0.0032,0.0014,0.0073,0.0124,0.0182,0.0231,0.0269,0.0241,0.0303,0.0307,0.0303,0.0306,0.0309,0.0311,0,0,-0.0359,-0.0378,-0.0383,-0.0398,-0.0388,-0.0395,-0.0393,-0.0377,-0.0359,-0.0331,-0.0305,-0.0214,-0.0165,-0.0088,0.0003,0.0034,0.0031,0.0115,0.0122,0.0118,0.0152,0.0198,0.0208,0.0087,0.0087,0.0087,0.0201,0,-0.0402,-0.0453,-0.0445,-0.0486,-0.0511,-0.0473,-0.0475,-0.0447,-0.0407,-0.0371,-0.0297,-0.0233,-0.0196,-0.0143,-0.0116,0.0018,0.0038,-0.0003,0.0224,0.023,0.0234,0.0212,0.0216,0.0319,0.0206,0.0207,0.0208,0,-0.0456,-0.0482,-0.0535,-0.0552,-0.0556,-0.0568,-0.0542,-0.0536,-0.0465,-0.043,-0.0367,-0.0289,-0.0221,-0.0198,-0.0056,-0.0073,0.001,0.0083,0.0091,0.0199,0.0284,0.034,0.0332,0.0216,0.0216,0.0215,0.0214,0,-0.0506,-0.0545,-0.0588,-0.0596,-0.0606,-0.0611,-0.0604,-0.0552,-0.0539,-0.0457,-0.0427,-0.0325,-0.026,-0.0166,-0.0026,-0.0026,0.0124,0.0158,0.0266,0.0272,0.0351,0.0364,0.0217,0.0217,0.0216,0.0216,0.0216,0,-0.0562,-0.0598,-0.0614,-0.0642,-0.0676,-0.0661,-0.0669,-0.0636,-0.0584,-0.0547,-0.046,-0.0389,-0.0253,-0.0138,-0.0031,0.0137,0.0127,0.0239,0.0298,0.0291,0.0296,0.0277,0.0282,0.022,0.0219,0.0219,0.0218,0,-0.062,-0.063,-0.068,-0.07,-0.0708,-0.0729,-0.0729,-0.0724,-0.0666,-0.0612,-0.0588,-0.0431,-0.026,-0.0131,0.0061,0.0147,0.0293,0.0347,0.0327,0.0379,0.0407,0.0402,0.0484,0.0486,0.0488,0.049,0.0491,0,-0.0652,-0.0686,-0.073,-0.0754,-0.0767,-0.0793,-0.0808,-0.0771,-0.0756,-0.0615,-0.0586,-0.041,-0.0235,0.0046,0.0214,0.0404,0.0369,0.0498,0.0478,0.0382,0.0432,0.0423,0.0416,0.0518,0.0519,0.0521,0.0522,0,-0.0708,-0.0721,-0.0759,-0.0816,-0.0843,-0.0875,-0.0885,-0.0879,-0.0803,-0.0713,-0.0526,-0.0361,-0.0081,0.0179,0.039,0.049,0.0467,0.0531,0.0455,0.0442,0.0422,0.0468,0.0458,0.0533,0.0532,0.0531,0.053,0.053,-0.0734,-0.0767,-0.0813,-0.0863,-0.09,-0.0927,-0.0923,-0.0889,-0.0812,-0.062,-0.0466,-0.0169,0.0019,0.0391,0.0519,0.0609,0.0602,0.0626,0.0619,0.0612,0.0588,0.0571,0.0706,0.0706,0.0706,0.0706,0.0706,0,-0.0756,-0.0797,-0.0854,-0.0907,-0.0952,-0.0962,-0.095,-0.0891,-0.0755,-0.0504,-0.027,-0.0007,0.0282,0.0445,0.0628,0.0732,0.0694,0.0724,0.066,0.065,0.064,0.0614,0.0742,0.0742,0.0742,0.0742,0,0,-0.0764,-0.0824,-0.0857,-0.0933,-0.0968,-0.0977,-0.0948,-0.0816,-0.0614,-0.0332,-0.009,0.0193,0.0393,0.0512,0.0619,0.0709,0.0658,0.0706,0.0674,0.0582,0.0572,0.0586,0.0535,0,0,0,0,0]}],[{"header":{"parameterUnit":"m.s-1","parameterCategory":2,"la1":30.2991,"la2":30.254,"lo1":-89.0895,"lo2":-89.0444,"dy":0.0017,"dx":0.0017,"nx":28,"ny":28,"refTime":"2023-10-19T21:00:00:Z","depth":"4","parameterNumber":2,"parameterNumberName":"U-component_of_CURRENTS"},"data":[0,0,0,0,0,0,0,0,0,0,0,0,0,0,0,0,0,0,0,0,0,0,0,0,0,0,0,0,0,0,0,0,0,0,0,0,0,0,0,0,0,0,0,0,0,0,0,0,0,0,0,0,0,0,0,0,0,0,-0.141,-0.1411,0,-0.1523,-0.1524,-0.1525,-0.1568,-0.1567,-0.1567,-0.1567,-0.1619,-0.162,-0.1622,0,0,0,0,0,0,0,0,0,0,0,0,0,-0.1273,-0.1275,-0.141,-0.1411,-0.1413,-0.1523,-0.1524,-0.1526,-0.1568,-0.1567,-0.1567,-0.1567,-0.1618,-0.162,-0.1622,0,0,0,0,0,0,0,0,0,0,0,0,0,-0.1352,-0.1276,-0.1409,-0.1449,-0.1454,-0.1523,-0.1524,-0.1526,-0.1568,-0.1567,-0.1567,-0.1567,-0.1618,-0.162,-0.1622,-0.164,0,0,-0.1629,-0.163,0,0,0,0,0,0,0,0,-0.1347,-0.1356,-0.1442,-0.1446,-0.1452,-0.1533,-0.1496,-0.1562,-0.1568,-0.1522,-0.1567,-0.1567,-0.1586,-0.1591,-0.161,-0.1642,-0.1644,-0.1629,-0.1631,-0.1632,-0.1632,0,0,0,0,0,0,0,-0.1341,-0.1352,-0.1452,-0.1443,-0.145,-0.1477,-0.1487,-0.1509,-0.155,-0.1526,-0.153,-0.1547,-0.1588,-0.1608,-0.1612,-0.1645,-0.1629,-0.1631,-0.1633,-0.1633,-0.175,-0.1751,0,0,0,0,0,0,-0.1331,-0.1347,-0.1448,-0.1456,-0.1401,-0.1479,-0.1491,-0.1505,-0.1552,-0.156,-0.1547,-0.1548,-0.1604,-0.1609,-0.1613,-0.1673,-0.1632,-0.1634,-0.1635,-0.1748,-0.175,-0.1752,0,0,0,0,0,0,-0.1328,-0.1339,-0.1444,-0.1406,-0.1421,-0.1482,-0.1498,-0.1508,-0.1549,-0.1569,-0.1575,-0.1581,-0.1604,-0.161,-0.1657,-0.1674,-0.1635,-0.1637,-0.1746,-0.1749,-0.1751,-0.1768,0,0,0,0,0,0,-0.1323,-0.1337,-0.1353,-0.1405,-0.1423,-0.1495,-0.1499,-0.151,-0.156,-0.1564,-0.16,-0.1604,-0.1605,-0.1654,-0.1659,-0.1676,-0.1638,-0.1744,-0.1747,-0.175,-0.1766,-0.1771,-0.1776,0,0,0,0,0,-0.1318,-0.1335,-0.1353,-0.1366,-0.144,-0.1497,-0.1509,-0.1549,-0.1562,-0.1585,-0.1615,-0.1603,-0.1678,-0.1657,-0.1663,-0.1681,-0.1742,-0.1746,-0.175,-0.1763,-0.177,-0.1776,0,0,0,0,0,0,-0.129,-0.1343,-0.1363,-0.1398,-0.145,-0.1505,-0.1535,-0.1564,-0.1608,-0.1615,-0.1628,-0.1635,-0.1678,-0.1687,-0.1664,-0.1727,-0.1708,-0.1713,-0.1716,-0.1722,-0.1727,-0.1729,-0.164,0,0,0,0,0,-0.129,-0.1316,-0.1374,-0.1406,-0.1432,-0.1489,-0.1521,-0.1551,-0.1595,-0.1616,-0.1646,-0.1675,-0.1698,-0.1716,-0.1738,-0.1778,-0.177,-0.1795,-0.18,-0.1804,-0.1812,-0.1828,-0.1835,-0.1765,-0.1765,-0.1765,0,0,-0.129,-0.1324,-0.134,-0.1403,-0.1445,-0.1494,-0.1508,-0.1564,-0.1607,-0.1613,-0.1682,-0.1696,-0.1714,-0.1753,-0.1774,-0.1764,-0.1816,-0.1809,-0.1812,-0.1818,-0.1833,-0.1839,-0.1845,-0.1768,-0.1767,-0.1767,0,0,-0.1299,-0.1332,-0.1358,-0.1403,-0.1472,-0.151,-0.1531,-0.1602,-0.1635,-0.17,-0.1708,-0.1736,-0.1792,-0.1798,-0.1808,-0.186,-0.1843,-0.1874,-0.1902,-0.1917,-0.1922,-0.1927,-0.1902,-0.1904,-0.1877,-0.1878,-0.1878,0,-0.13,-0.1339,-0.1377,-0.142,-0.1461,-0.1519,-0.1565,-0.1612,-0.1691,-0.1721,-0.1725,-0.1803,-0.1808,-0.1845,-0.1861,-0.1868,-0.1869,-0.187,-0.1922,-0.1926,-0.193,-0.1904,-0.1906,-0.1879,-0.1879,-0.1879,-0.1878,0,-0.1325,-0.137,-0.1392,-0.1462,-0.1511,-0.1561,-0.1628,-0.1684,-0.1731,-0.1773,-0.1834,-0.1849,-0.1892,-0.1895,-0.1893,-0.1932,-0.1917,-0.1921,-0.1897,-0.1938,-0.1908,-0.191,-0.1881,-0.188,-0.188,-0.1879,0,0,-0.1294,-0.1389,-0.1401,-0.1445,-0.1537,-0.1582,-0.1656,-0.1735,-0.179,-0.1849,-0.1905,-0.1935,-0.1949,-0.1961,-0.1961,-0.1971,-0.1982,-0.1966,-0.1966,-0.1926,-0.1997,-0.1847,-0.1834,-0.2003,-0.2004,-0.2005,-0.1953,0,-0.1306,-0.1379,-0.1429,-0.1516,-0.156,-0.1638,-0.1706,-0.1784,-0.1845,-0.1914,-0.1932,-0.1982,-0.1973,-0.1991,-0.2004,-0.1995,-0.1994,-0.1994,-0.1978,-0.1976,-0.1826,-0.1834,-0.2008,-0.1955,-0.1955,-0.1955,-0.1956,0,-0.1313,-0.1361,-0.1435,-0.1547,-0.1577,-0.1641,-0.1756,-0.1827,-0.1923,-0.1967,-0.2018,-0.204,-0.2065,-0.205,-0.2054,-0.2062,-0.2036,-0.2017,-0.2015,-0.1873,-0.183,-0.1915,-0.1959,-0.1958,-0.1958,-0.1958,-0.1958,0,-0.1262,-0.1372,-0.1429,-0.1468,-0.1597,-0.1653,-0.1731,-0.1841,-0.19,-0.1998,-0.2036,-0.2085,-0.2097,-0.21,-0.2059,-0.2072,-0.2042,-0.2051,-0.1885,-0.1873,-0.2015,-0.2011,-0.2049,-0.2049,-0.2049,-0.2049,-0.2049,0,-0.1244,-0.1296,-0.1417,-0.1449,-0.1536,-0.1637,-0.1733,-0.182,-0.1923,-0.1976,-0.2056,-0.2074,-0.2116,-0.2102,-0.2073,-0.1965,-0.2052,-0.1881,-0.1853,-0.2021,-0.2019,-0.2014,-0.2011,-0.2047,-0.2048,-0.2048,-0.2048,0,-0.1172,-0.1255,-0.1328,-0.1462,-0.1514,-0.1574,-0.1726,-0.1785,-0.1898,-0.1963,-0.1989,-0.2069,-0.204,-0.2039,-0.2016,-0.195,-0.1882,-0.1822,-0.1971,-0.1954,-0.17,-0.1699,-0.1639,-0.1633,-0.1628,-0.1624,-0.1621,0,-0.114,-0.1169,-0.1312,-0.1363,-0.1427,-0.1535,-0.1607,-0.1752,-0.1804,-0.1929,-0.1935,-0.1957,-0.1979,-0.1812,-0.1843,-0.1758,-0.1736,-0.1696,-0.1725,-0.168,-0.166,-0.1666,-0.1671,-0.1613,-0.1612,-0.1611,-0.1609,0,-0.1067,-0.1125,-0.1184,-0.1279,-0.1365,-0.145,-0.1557,-0.1581,-0.1727,-0.1836,-0.1815,-0.1787,-0.1742,-0.1704,-0.1635,-0.1587,-0.1727,-0.1646,-0.1656,-0.1684,-0.1649,-0.1635,-0.1645,-0.1593,-0.1595,-0.1597,-0.1598,0,-0.1012,-0.1028,-0.1113,-0.1187,-0.1286,-0.1334,-0.1409,-0.146,-0.1526,-0.1662,-0.164,-0.1661,-0.1718,-0.1612,-0.1558,-0.1485,-0.147,-0.1435,-0.1456,-0.1475,-0.1444,-0.1377,-0.1204,0,0,0,0,0,-0.0949,-0.0959,-0.1019,-0.1096,-0.1183,-0.1235,-0.1364,-0.1439,-0.1566,-0.15,-0.1568,-0.1515,-0.144,-0.1458,-0.1343,-0.1482,-0.1478,-0.1345,-0.145,-0.1501,-0.152,-0.1498,0,0,0,0,0,0,-0.0912,-0.0954,-0.0976,-0.0997,-0.1024,-0.1106,-0.1176,-0.1268,-0.1246,-0.1368,-0.1324,-0.1411,-0.1349,-0.1455,-0.1301,-0.1304,-0.1337,-0.1366,-0.1361,-0.149,-0.1507,-0.1523,-0.1507,0,0,0,0,0]},{"header":{"parameterUnit":"m.s-1","parameterCategory":2,"la1":30.2991,"la2":30.254,"lo1":-89.0895,"lo2":-89.0444,"dy":0.0017,"dx":0.0017,"nx":28,"ny":28,"refTime":"2023-10-19T21:00:00:Z","depth":"4","parameterNumber":3,"parameterNumberName":"V-component_of_CURRENTS"},"data":[0,0,0,0,0,0,0,0,0,0,0,0,0,0,0,0,0,0,0,0,0,0,0,0,0,0,0,0,0,0,0,0,0,0,0,0,0,0,0,0,0,0,0,0,0,0,0,0,0,0,0,0,0,0,0,0,0,0,-0.0158,-0.0158,0,-0.0147,-0.0147,-0.0147,-0.0122,-0.0122,-0.0121,-0.0121,-0.0069,-0.0068,-0.0067,0,0,0,0,0,0,0,0,0,0,0,0,0,-0.0134,-0.0134,-0.0159,-0.0158,-0.0158,-0.0147,-0.0147,-0.0147,-0.0123,-0.0122,-0.0121,-0.0121,-0.0069,-0.0068,-0.0067,0,0,0,0,0,0,0,0,0,0,0,0,0,-0.0136,-0.0135,-0.0159,-0.0145,-0.0143,-0.0147,-0.0147,-0.0147,-0.0123,-0.0122,-0.0121,-0.012,-0.007,-0.0068,-0.0067,-0.0074,0,0,-0.0063,-0.0062,0,0,0,0,0,0,0,0,-0.0136,-0.0137,-0.0147,-0.0146,-0.0144,-0.0135,-0.0119,-0.012,-0.0123,-0.0131,-0.0121,-0.012,-0.0088,-0.0085,-0.0085,-0.0071,-0.0069,-0.0063,-0.0062,-0.0061,-0.0061,0,0,0,0,0,0,0,-0.0136,-0.0137,-0.0154,-0.0147,-0.0145,-0.013,-0.013,-0.0119,-0.0113,-0.013,-0.0128,-0.0127,-0.0087,-0.0087,-0.0084,-0.0068,-0.0063,-0.0062,-0.0061,-0.006,-0.0064,-0.0065,0,0,0,0,0,0,-0.0139,-0.0137,-0.0154,-0.0154,-0.0138,-0.0131,-0.0131,-0.0139,-0.0114,-0.011,-0.0127,-0.0126,-0.0089,-0.0085,-0.0082,-0.0102,-0.0061,-0.006,-0.0059,-0.0063,-0.0064,-0.0065,0,0,0,0,0,0,-0.0139,-0.0141,-0.0155,-0.0144,-0.0145,-0.0133,-0.0142,-0.0139,-0.0134,-0.0112,-0.0107,-0.0124,-0.0089,-0.0084,-0.0079,-0.0099,-0.0059,-0.0058,-0.0062,-0.0063,-0.0065,-0.0133,0,0,0,0,0,0,-0.0138,-0.0141,-0.0148,-0.0145,-0.0146,-0.0163,-0.0142,-0.0139,-0.0135,-0.0132,-0.0108,-0.0103,-0.0088,-0.0081,-0.0077,-0.0096,-0.0057,-0.0061,-0.0063,-0.0064,-0.013,-0.0137,-0.0142,0,0,0,0,0,-0.0138,-0.0155,-0.0149,-0.015,-0.0156,-0.0163,-0.0163,-0.0151,-0.0135,-0.0141,-0.0126,-0.0104,-0.0089,-0.0081,-0.0076,-0.0095,-0.006,-0.0062,-0.0064,-0.0127,-0.0135,-0.0142,0,0,0,0,0,0,-0.0149,-0.0154,-0.0147,-0.0164,-0.0164,-0.0159,-0.0163,-0.0152,-0.0145,-0.0138,-0.0114,-0.0109,-0.0116,-0.0094,-0.0085,-0.0102,-0.0072,-0.0073,-0.0121,-0.0128,-0.0135,-0.0113,-0.0056,0,0,0,0,0,-0.0155,-0.0167,-0.0166,-0.018,-0.018,-0.017,-0.017,-0.0162,-0.0155,-0.0151,-0.0137,-0.0123,-0.0123,-0.0115,-0.011,-0.0114,-0.0057,-0.0124,-0.013,-0.0136,-0.0116,-0.0053,-0.0051,-0.0072,-0.0072,-0.0072,0,0,-0.0164,-0.0166,-0.0174,-0.0182,-0.0179,-0.0193,-0.0168,-0.0172,-0.0181,-0.0146,-0.0155,-0.0147,-0.013,-0.0143,-0.0143,-0.0124,-0.0102,-0.0139,-0.0144,-0.012,-0.0055,-0.0052,-0.005,-0.0073,-0.0073,-0.0073,0,0,-0.0191,-0.019,-0.0209,-0.0212,-0.0211,-0.0207,-0.0208,-0.0206,-0.0201,-0.0209,-0.0193,-0.019,-0.0186,-0.018,-0.0175,-0.0209,-0.0143,-0.0215,-0.0225,-0.0166,-0.0163,-0.0159,-0.009,-0.0079,-0.0214,-0.0214,-0.0214,0,-0.0199,-0.0225,-0.0215,-0.0233,-0.024,-0.0216,-0.0237,-0.0233,-0.023,-0.0223,-0.0218,-0.0204,-0.0202,-0.0201,-0.0223,-0.0223,-0.0168,-0.02,-0.0172,-0.0167,-0.0162,-0.0092,-0.008,-0.0217,-0.0217,-0.0216,-0.0216,0,-0.0239,-0.0259,-0.027,-0.0286,-0.0291,-0.0305,-0.0299,-0.0298,-0.0287,-0.0275,-0.0268,-0.0259,-0.0241,-0.0257,-0.0253,-0.0231,-0.0196,-0.0191,-0.0149,-0.0164,-0.0089,-0.0075,-0.0222,-0.0221,-0.022,-0.0219,0,0,-0.0264,-0.0293,-0.0299,-0.0314,-0.032,-0.033,-0.0339,-0.0337,-0.0327,-0.0318,-0.0299,-0.0315,-0.0285,-0.0277,-0.0269,-0.0227,-0.0171,-0.0198,-0.0193,-0.0122,-0.0018,-0.0018,-0.0002,-0.0154,-0.0152,-0.0151,0.0019,0,-0.0298,-0.0347,-0.0349,-0.039,-0.0413,-0.0395,-0.0407,-0.0396,-0.0372,-0.0346,-0.0313,-0.0299,-0.0299,-0.0292,-0.025,-0.0189,-0.0135,-0.0215,-0.0018,-0.0012,-0.0004,0.0014,-0.0144,0.003,0.0033,0.0035,0.0037,0,-0.0337,-0.0364,-0.0416,-0.0442,-0.0449,-0.0469,-0.0461,-0.0464,-0.0415,-0.0391,-0.0345,-0.0305,-0.0253,-0.025,-0.0117,-0.0163,-0.0092,-0.0038,-0.003,0.0012,0.0015,0.005,0.0064,0.0062,0.006,0.0058,0.0056,0,-0.0365,-0.041,-0.0453,-0.0465,-0.049,-0.0504,-0.0509,-0.0479,-0.0471,-0.0404,-0.037,-0.0293,-0.024,-0.0144,-0.0043,-0.0068,0.0126,0.0106,0.0183,0.0185,0.0165,0.016,0.0219,0.0219,0.0218,0.0218,0.0217,0,-0.0402,-0.0437,-0.0472,-0.0499,-0.054,-0.0539,-0.0556,-0.0539,-0.0496,-0.0457,-0.0391,-0.0317,-0.0207,-0.009,-0.0009,0.0141,0.0161,0.0205,0.0233,0.0129,0.0118,0.0175,0.0168,0.0224,0.0223,0.0222,0.0221,0,-0.0429,-0.0455,-0.0507,-0.0546,-0.0561,-0.0587,-0.0603,-0.06,-0.0549,-0.0485,-0.0461,-0.0317,-0.015,-0.0037,0.0142,0.0192,0.0321,0.0367,0.027,0.0287,0.0336,0.0323,0.0482,0.0483,0.0485,0.0486,0.0487,0,-0.0447,-0.0478,-0.0544,-0.0579,-0.0603,-0.0639,-0.066,-0.0636,-0.0613,-0.0466,-0.0423,-0.0248,-0.0143,0.0138,0.0233,0.0406,0.0408,0.0472,0.0381,0.0353,0.0365,0.035,0.0336,0.0489,0.0489,0.0489,0.049,0,-0.0474,-0.0501,-0.0543,-0.0618,-0.0661,-0.0696,-0.0709,-0.0686,-0.0611,-0.0568,-0.0345,-0.0187,0.0012,0.0186,0.0315,0.0428,0.0422,0.0485,0.0482,0.0397,0.0364,0.0371,0.0355,0.0494,0.0494,0.0493,0.0493,0,-0.0486,-0.0522,-0.0583,-0.0644,-0.0703,-0.0722,-0.0726,-0.0654,-0.0611,-0.0436,-0.0346,-0.0121,0.0013,0.0203,0.0328,0.043,0.0436,0.0439,0.0439,0.0435,0.0342,0.0287,0.0442,0,0,0,0,0,-0.049,-0.0537,-0.0603,-0.067,-0.0729,-0.0756,-0.0744,-0.0725,-0.0634,-0.0475,-0.0405,-0.0205,0.005,0.0172,0.0278,0.0295,0.0404,0.0416,0.0393,0.0519,0.0514,0.0409,0,0,0,0,0,0,-0.0497,-0.0561,-0.0602,-0.0677,-0.0723,-0.0773,-0.0758,-0.0696,-0.0593,-0.0471,-0.0327,-0.0212,0.0023,-0.0015,0.0272,0.0305,0.0298,0.0539,0.0541,0.0522,0.0517,0.0513,0.0404,0,0,0,0,0]}]]